When you browse on this site, cookies collect data to enhance your experience and personalize the content and advertising you see.
Visit our Privacy Policy to learn more. By continuing to use the site, you agree to this use of cookies and data.

Hourly Weather Cuilapa

Today, 13 August, Thursday

Time Temperature Precipitation Wind Pressure Humidity
00:00 +20°C° 0 mm 2 mps 685 mmHg 93%
01:00 +20°C° 0 mm 2 mps 685 mmHg 92%
02:00 +20°C° 0 mm 2 mps 684 mmHg 92%
03:00 +20°C° 0 mm 2 mps 684 mmHg 91%
04:00 +20°C° 0 mm 2 mps 684 mmHg 90%
05:00 +20°C° 0 mm 2 mps 684 mmHg 90%
06:00 +19°C° 0 mm 2 mps 684 mmHg 89%
07:00 +21°C° 0 mm 2 mps 685 mmHg 82%
08:00 +24°C° 0 mm 2 mps 685 mmHg 75%
09:00 +26°C° 0 mm 2 mps 686 mmHg 68%
10:00 +28°C° 0 mm 2 mps 686 mmHg 63%
11:00 +29°C° 0 mm 2 mps 686 mmHg 58%
12:00 +30°C° 0 mm 2 mps 686 mmHg 53%
13:00 +30°C° 0 mm 2 mps 686 mmHg 55%
14:00 +30°C° 0 mm 2 mps 685 mmHg 56%
15:00 +30°C° 0 mm 2 mps 684 mmHg 58%
16:00 +28°C° 0.1 mm 2 mps 684 mmHg 69%
17:00 +26°C° 0.1 mm 1 mps 684 mmHg 79%
18:00 +25°C° 0.1 mm 1 mps 684 mmHg 90%
19:00 +24°C° 0.1 mm 1 mps 684 mmHg 91%
20:00 +23°C° 0.1 mm 1 mps 684 mmHg 91%
21:00 +21°C° 0.1 mm 2 mps 685 mmHg 92%
22:00 +21°C° 0 mm 2 mps 685 mmHg 91%
23:00 +20°C° 0 mm 2 mps 685 mmHg 91%

Tomorrow, 14 August, Friday

Time Temperature Precipitation Wind Pressure Humidity
00:00 +20°C° 0 mm 2 mps 685 mmHg 90%
01:00 +20°C° 0 mm 2 mps 684 mmHg 89%
02:00 +20°C° 0 mm 2 mps 684 mmHg 88%
03:00 +20°C° 0 mm 2 mps 683 mmHg 87%
04:00 +20°C° 0 mm 2 mps 684 mmHg 87%
05:00 +20°C° 0 mm 2 mps 684 mmHg 86%
06:00 +19°C° 0 mm 2 mps 684 mmHg 86%
07:00 +23°C° 0 mm 2 mps 684 mmHg 79%
08:00 +25°C° 0 mm 2 mps 685 mmHg 71%
09:00 +27°C° 0 mm 1 mps 686 mmHg 64%
10:00 +28°C° 0 mm 1 mps 686 mmHg 60%
11:00 +30°C° 0 mm 2 mps 686 mmHg 57%
12:00 +31°C° 0 mm 2 mps 686 mmHg 53%
13:00 +30°C° 0.1 mm 2 mps 685 mmHg 57%
14:00 +30°C° 0.1 mm 2 mps 684 mmHg 61%
15:00 +30°C° 0.1 mm 2 mps 684 mmHg 65%
16:00 +28°C° 0.3 mm 2 mps 684 mmHg 73%
17:00 +26°C° 0.3 mm 1 mps 683 mmHg 82%
18:00 +25°C° 0.3 mm 1 mps 683 mmHg 91%
19:00 +24°C° 0.7 mm 1 mps 684 mmHg 91%
20:00 +23°C° 0.7 mm 1 mps 684 mmHg 92%
21:00 +21°C° 0.7 mm 2 mps 685 mmHg 92%
22:00 +21°C° 0.1 mm 2 mps 685 mmHg 91%
23:00 +21°C° 0.1 mm 2 mps 684 mmHg 91%

Day after tomorrow, 15 August, Saturday

Time Temperature Precipitation Wind Pressure Humidity
00:00 +21°C° 0.1 mm 2 mps 684 mmHg 90%
01:00 +21°C° 0 mm 2 mps 684 mmHg 89%
02:00 +21°C° 0 mm 2 mps 684 mmHg 89%
03:00 +21°C° 0 mm 2 mps 683 mmHg 88%
04:00 +20°C° 0 mm 2 mps 683 mmHg 88%
05:00 +20°C° 0 mm 2 mps 683 mmHg 88%
06:00 +20°C° 0 mm 2 mps 683 mmHg 88%
07:00 +23°C° 0 mm 2 mps 684 mmHg 82%
08:00 +25°C° 0 mm 2 mps 685 mmHg 76%
09:00 +27°C° 0 mm 2 mps 685 mmHg 71%
10:00 +28°C° 0 mm 2 mps 685 mmHg 67%
11:00 +29°C° 0 mm 2 mps 685 mmHg 63%
12:00 +31°C° 0 mm 2 mps 685 mmHg 59%
13:00 +30°C° 0.2 mm 2 mps 685 mmHg 62%
14:00 +30°C° 0.2 mm 2 mps 684 mmHg 64%
15:00 +29°C° 0.2 mm 2 mps 684 mmHg 67%
16:00 +28°C° 0.7 mm 2 mps 683 mmHg 75%
17:00 +26°C° 0.7 mm 1 mps 683 mmHg 84%
18:00 +24°C° 0.7 mm 1 mps 683 mmHg 92%
19:00 +23°C° 0.7 mm 1 mps 684 mmHg 93%
20:00 +23°C° 0.7 mm 1 mps 684 mmHg 93%
21:00 +22°C° 0.7 mm 1 mps 685 mmHg 94%
22:00 +20°C° 0 mm 2 mps 685 mmHg 93%
23:00 +20°C° 0 mm 2 mps 685 mmHg 92%

16 August, Sunday

Time Temperature Precipitation Wind Pressure Humidity
00:00 +20°C° 0 mm 2 mps 685 mmHg 91%
01:00 +19°C° 0 mm 2 mps 684 mmHg 90%
02:00 +19°C° 0 mm 2 mps 684 mmHg 88%
03:00 +19°C° 0 mm 2 mps 683 mmHg 87%
04:00 +19°C° 0 mm 2 mps 683 mmHg 84%
05:00 +19°C° 0 mm 2 mps 684 mmHg 82%
06:00 +19°C° 0 mm 2 mps 684 mmHg 79%
07:00 +20°C° 0 mm 2 mps 684 mmHg 78%
08:00 +21°C° 0 mm 2 mps 685 mmHg 78%
09:00 +21°C° 0 mm 2 mps 685 mmHg 77%
10:00 +23°C° 0.1 mm 2 mps 685 mmHg 79%
11:00 +23°C° 0.1 mm 1 mps 685 mmHg 81%
12:00 +23°C° 0.1 mm 1 mps 685 mmHg 84%
13:00 +23°C° 0.2 mm 1 mps 685 mmHg 86%
14:00 +22°C° 0.2 mm 1 mps 685 mmHg 88%
15:00 +21°C° 0.2 mm 2 mps 684 mmHg 89%
16:00 +21°C° 0.6 mm 2 mps 684 mmHg 91%
17:00 +20°C° 0.6 mm 2 mps 684 mmHg 93%
18:00 +20°C° 0.6 mm 2 mps 685 mmHg 94%
19:00 +19°C° 0.2 mm 2 mps 685 mmHg 93%
20:00 +19°C° 0.2 mm 2 mps 685 mmHg 92%
21:00 +19°C° 0.2 mm 2 mps 686 mmHg 91%
22:00 +19°C° 0 mm 2 mps 686 mmHg 90%
23:00 +19°C° 0 mm 2 mps 685 mmHg 89%

17 August, Monday

Time Temperature Precipitation Wind Pressure Humidity
00:00 +19°C° 0 mm 2 mps 685 mmHg 88%
01:00 +19°C° 0.1 mm 2 mps 685 mmHg 88%
02:00 +20°C° 0.1 mm 1 mps 685 mmHg 88%
03:00 +20°C° 0.1 mm 1 mps 685 mmHg 89%
04:00 +20°C° 0 mm 1 mps 685 mmHg 88%
05:00 +21°C° 0 mm 1 mps 685 mmHg 88%
06:00 +21°C° 0 mm 1 mps 685 mmHg 87%
07:00 +22°C° 0 mm 1 mps 685 mmHg 83%
08:00 +22°C° 0 mm 0 mps 686 mmHg 78%
09:00 +23°C° 0 mm 0 mps 687 mmHg 74%
10:00 +24°C° 0 mm 0 mps 687 mmHg 72%
11:00 +27°C° 0 mm 1 mps 687 mmHg 71%
12:00 +27°C° 0 mm 1 mps 687 mmHg 69%
13:00 +27°C° 0.4 mm 1 mps 686 mmHg 73%
14:00 +27°C° 0.4 mm 1 mps 685 mmHg 77%
15:00 +26°C° 0.4 mm 1 mps 685 mmHg 81%
16:00 +25°C° 0.6 mm 1 mps 685 mmHg 85%
17:00 +24°C° 0.6 mm 1 mps 685 mmHg 90%
18:00 +24°C° 0.6 mm 1 mps 685 mmHg 94%
19:00 +23°C° 0.8 mm 1 mps 685 mmHg 94%
20:00 +22°C° 0.8 mm 1 mps 686 mmHg 95%
21:00 +22°C° 0.8 mm 1 mps 686 mmHg 96%
22:00 +22°C° 0.7 mm 1 mps 686 mmHg 95%
23:00 +21°C° 0.7 mm 1 mps 686 mmHg 95%

18 August, Tuesday

Time Temperature Precipitation Wind Pressure Humidity
00:00 +21°C° 0.7 mm 1 mps 686 mmHg 94%
01:00 +20°C° 0.4 mm 1 mps 685 mmHg 94%
02:00 +20°C° 0.4 mm 1 mps 685 mmHg 94%
03:00 +20°C° 0.4 mm 1 mps 684 mmHg 94%
04:00 +20°C° 0 mm 1 mps 684 mmHg 93%
05:00 +20°C° 0 mm 1 mps 684 mmHg 93%
06:00 +20°C° 0 mm 1 mps 685 mmHg 92%
07:00 +22°C° 0 mm 1 mps 685 mmHg 86%
08:00 +22°C° 0 mm 0 mps 686 mmHg 80%
09:00 +25°C° 0 mm 0 mps 687 mmHg 74%
10:00 +25°C° 0 mm 0 mps 686 mmHg 72%
11:00 +28°C° 0 mm 1 mps 686 mmHg 70%
12:00 +29°C° 0 mm 1 mps 686 mmHg 67%
13:00 +28°C° 0.9 mm 1 mps 685 mmHg 73%
14:00 +28°C° 0.9 mm 1 mps 685 mmHg 78%
15:00 +27°C° 0.9 mm 1 mps 684 mmHg 84%
16:00 +26°C° 0.8 mm 1 mps 684 mmHg 88%
17:00 +25°C° 0.8 mm 1 mps 684 mmHg 92%
18:00 +22°C° 0.8 mm 0 mps 684 mmHg 95%
19:00 +24°C° 1.3 mm 1 mps 685 mmHg 96%
20:00 +23°C° 1.3 mm 1 mps 685 mmHg 96%
21:00 +22°C° 1.3 mm 1 mps 686 mmHg 96%
22:00 +22°C° 1.2 mm 1 mps 686 mmHg 96%
23:00 +22°C° 1.2 mm 1 mps 686 mmHg 95%
Show more